Zurück zum Katalog

COSMOS 2251 DEB

AktivLEO
NORAD 37994·DEBRIS·🇷🇺 Russia

Gestartet Jun 16, 1993 von Plesetsk Cosmodrome

Loading…

Nächste Überflüge (nächste 24 Stunden)

TLE

AktuellSource: Space-Track

Epoche: Sep 14, 2026, 08:06 UTC

1 37994U 93036BQV 26257.33773407  .00000487  00000-0  16213-3 0  9994
2 37994  74.0351 126.5398 0022765 144.5013 215.7662 14.40095902810314

Verfolge COSMOS 2251 DEB in Echtzeit mit AllMySat

Download on the App Store